Find Starlink 6319

NORAD ID: 56532 Int'l Des: 2023-065 Owner: SPXS Country: US Constellation: starlink operational
LEOCIRCULAR

实时位置

正在加载3D地球...

关于 Starlink 6319

正在加载描述...

即将过境

Passes for default location (London). Set your location on the main map for personalized predictions.

高度历史

Loading altitude history...

两行轨道根数

1 56532U 23065AF 26104.38723977 .00000455 00000-0 26071-4 0 9990
2 56532 43.0016 356.6315 0000876 257.2061 102.8692 15.27576535162227
Epoch: Apr 14, 2026 • Age: 24 hours

当前状态

高度 484.9 km
速度 7.63 km/s
星下点 34.39°N, 58.24°E
发射日期 May 14, 2023
运行时间 2.9 years
类型 internet

技术详情

分类 Payload
质量 305.00 kg
干质量 290.00 kg
总质量 305.00 kg
长度 0.20 m
直径 2.80 m
跨度 9.00 m
形状 Box + pan
制造商 SPXS
平台类型 Starlink
阶段状态 In Orbit
所有者/国家 SPXS/US

Most Searched